Regional Weather Roundup
Issued by NWS

Home | Current Version | Previous Version | Graphics & Text | Print | Product List | Glossary On
Versions: 1 2 3 4 5 6 7 8 9 10 11 12 13 14 15 16 17 18 19 20 21 22 23 24 25 26 27 28 29 30 31 32 33 34 35 36 37 38 39 40 41 42 43 44 45 46 47 48 49 50
000
ASUS43 KLSX 311407
RWRMO

WEATHER SUMMARY FOR MISSOURI
NATIONAL WEATHER SERVICE SPRINGFIELD MO
800 AM CST SAT JAN 31 2015

NOTE: "FAIR" INDICATES FEW OR NO CLOUDS BELOW 12,000 FEET WITH NO
       SIGNIFICANT WEATHER AND/OR OBSTRUCTIONS TO VISIBILITY.
       CURRENT SKY AND/OR WEATHER CONDITIONS ARE NOT AVAILABLE FOR
       CHILLICOTHE AND FARMINGTON.

MOZ001>031-035>038-043-044-053-054-311500-
...NORTHERN AND WESTERN MISSOURI...

CITY           SKY/WX    TMP DP  RH WIND       PRES   REMARKS
KANSAS CTY INT LGT RAIN  34  33  96 SE6       30.23F FOG     WCI  29
KANSAS C DTWN  LGT RAIN  36  33  89 E6        30.25F
LEE`S SUMMIT   LGT RAIN  34  32  92 SE7       30.25S WCI  28
ST JOSEPH      LGT RAIN  34  34 100 CALM      30.25F FOG
CHILLICOTHE      N/A     33  31  92 CALM      30.28S
KIRKSVILLE     CLOUDY    31  22  69 SW3       30.26F

$$
MOZ066>068-077>081-088>096-101>105-311500-
...SOUTHWEST MISSOURI...

CITY           SKY/WX    TMP DP  RH WIND       PRES   REMARKS
SPRINGFIELD    CLOUDY    38  27  64 SE5       30.23F
JOPLIN         CLOUDY    41  27  57 E8        30.24R

$$
MOZ032>034-039>042-045>050-055>058-069>072-311500-
...CENTRAL MISSOURI...

CITY           SKY/WX    TMP DP  RH WIND       PRES   REMARKS
COLUMBIA       CLOUDY    33  22  63 S7        30.30R WCI  27
JEFFERSON CITY CLOUDY    32  24  72 SE5       30.32R WCI  27
ROLLA          CLOUDY    35  23  61 S10       30.29R WCI  27
SEDALIA        LGT RAIN  35  30  82 S5        30.28F
WHITEMAN AFB   LGT RAIN  33  30  90 CALM      30.27S
WARRENSBURG    DRIZZLE   32  32 100 CALM      30.27F
OSAGE BEACH    CLOUDY    37  21  52 SE3       30.30R

$$
MOZ051-052-059>065-311500-
...EAST CENTRAL MISSOURI...

CITY           SKY/WX    TMP DP  RH WIND       PRES   REMARKS
ST LOUIS INTL  CLOUDY    34  21  59 CALM      30.34S
SPIRIT OF STL  CLOUDY    30  25  81 CALM      30.33S
ST CHARLES     CLOUDY    28  25  88 CALM      30.34S

$$
MOZ072>076-082>087-097>100-106>115-311500-
...SOUTH CENTRAL AND SOUTHEAST MISSOURI...

CITY           SKY/WX    TMP DP  RH WIND       PRES   REMARKS
CAPE GIRARDEAU CLOUDY    32  27  81 CALM      30.39R
FARMINGTON     CLOUDY    32  21  64 S5        30.37R WCI  27
POPLAR BLUFF   CLOUDY    32  27  81 CALM      30.37S
WEST PLAINS    CLOUDY    34  24  67 S3        30.33R

$$


USA.gov is the U.S. government's official web portal to all federal, state and local government web resources and services.